Location: Hamilton
(39.3990°N, 84.5610°W)
Time: 12:52:53
(UTC-04:00)

ISS - Visible Passes

Search period start: 17 May 2021 00:00
Search period end: 27 May 2021 00:00
Orbit: 417 x 422 km, 51.6° (Epoch: 17 May)

Date Brightness Start Highest point End Pass type
(mag) Time Alt. Az. Time Alt. Az. Time Alt. Az.
17 May -0.2 00:43:29 10° NNW 00:44:14 11° N 00:45:00 10° N visible
17 May -0.5 02:20:10 10° NNW 02:26:37 - ENE 02:21:38 14° N visible
17 May -3.0 04:00:11 49° E 04:00:11 49° E 04:02:54 10° ESE visible
17 May -2.0 05:34:11 10° W 05:36:01 14° SW 05:37:51 10° SSW visible
17 May -1.6 22:15:50 10° W 22:18:48 29° NNW 22:21:49 10° NE visible
17 May -0.3 23:55:17 10° NNW 23:56:29 11° N 23:57:41 10° NNE visible
18 May -0.4 01:32:58 10° NNW 01:34:27 12° NNE 01:34:27 12° NNE visible
18 May -2.5 21:28:02 10° WSW 21:31:16 44° NNW 21:34:31 10° NE visible
18 May -0.5 23:07:02 10° NW 23:08:45 13° NNW 23:10:28 10° NNE visible
19 May -0.3 00:45:44 10° N 00:46:44 11° N 00:47:45 10° NNE visible
19 May -0.7 22:18:50 10° WNW 22:21:02 16° NNW 22:23:16 10° NNE visible
19 May -0.3 23:58:20 10° N 23:58:59 10° N 23:59:36 10° NNE visible
20 May -0.4 01:34:21 10° NNW 01:34:54 13° NNW 01:34:54 13° NNW visible
20 May -1.0 21:30:44 10° WNW 21:33:23 21° NNW 21:36:01 10° NNE visible
20 May -0.4 23:10:28 10° NNW 23:11:12 11° N 23:11:56 10° N visible
21 May -0.7 00:47:07 10° NNW 00:48:49 15° N 00:48:49 15° N visible
21 May -0.5 22:22:14 10° NNW 22:23:26 11° N 22:24:37 10° NNE visible
21 May -0.7 23:59:54 10° NNW 00:01:26 12° NNE 00:02:47 10° NE visible
22 May -0.7 21:33:58 10° NW 21:35:40 13° NNW 21:37:23 10° NNE visible
22 May -0.6 23:12:40 10° N 23:13:40 11° N 23:14:41 10° NNE visible
23 May -0.8 00:48:31 10° NNW 00:49:42 17° NNW 00:49:42 17° NNW visible
23 May -0.5 22:25:16 10° N 22:25:53 10° N 22:26:30 10° NNE visible
24 May -1.3 00:01:15 10° NNW 00:03:43 19° NNE 00:03:43 19° NNE visible
24 May -0.6 21:37:23 10° NNW 21:38:06 10° N 21:38:49 10° N visible
24 May -1.0 23:14:01 10° NNW 23:16:03 15° NNE 23:17:46 11° NE visible
25 May -0.7 00:50:04 10° NW 00:50:42 15° NW 00:50:42 15° NW visible
25 May -0.9 22:26:47 10° NNW 22:28:19 12° NNE 22:29:50 10° NE visible
26 May -1.7 00:02:41 10° NW 00:04:46 28° NNW 00:04:46 28° NNW visible
26 May -0.8 21:39:32 10° N 21:40:32 11° N 21:41:33 10° NNE visible
26 May -2.0 23:15:23 10° NNW 23:18:16 26° NNE 23:18:51 24° NE visible
